Location: Asheville, NC
(35.6000°N, 82.5500°W)
Time: 04:53:09
(UTC-04:00)

N. Korean satellite - Pass Details

Date: 10 February 2018
Orbit: 458 x 513 km, 97.2° (Epoch: 24 May)

Event Time Altitude Azimuth Distance (km) Brightness Sun altitude
Rises 18:26:17 0° 167° (SSE) 2,474 10.2 -4.6°
Reaches altitude 10° 18:28:19 10° 167° (SSE) 1,599 9.2 -5.0°
Maximum altitude 18:31:44 88° 80° (E) 463 6.4 -5.6°
Drops below altitude 10° 18:35:10 10° 349° (N) 1,602 9.2 -6.3°
Sets 18:37:13 0° 349° (N) 2,480 10.2 -6.7°
